Sitka, Alaska, United States (99835)
Lat: 57.05N, Lon: 135.33W
Wx Zone: AKZ023
Local Info
Past Weather Observations for Saturday, October 25, 2014

NOTE: This archive is for the closest National Weather Service station to Sitka. Information may differ from the station used for current weather conditions.

Click here for Long-term Archive

Time Weather Temperature Dewpoint Humidity Pressure Winds Precip Visibility
23:53
Clear
37°F / 3°C 37°F / 3°C 100% 29.74 in
(1007 mb)
Calm - 10SM
22:53
Clear
39°F / 4°C 39°F / 4°C 100% 29.71 in
(1006 mb)
Calm - 10SM
21:53
Clear
37°F / 3°C 37°F / 3°C 100% 29.71 in
(1006 mb)
E 3.5 mph
(E 6 kph)
- 10SM
20:53
Clear
37°F / 3°C 37°F / 3°C 100% 29.68 in
(1005 mb)
E 4.6 mph
(E 7 kph)
- 10SM
19:53
Clear
39°F / 4°C 37°F / 3°C 93% 29.68 in
(1005 mb)
E 5.8 mph
(E 9 kph)
- 10SM
18:53
Clear
41°F / 5°C 39°F / 4°C 93% 29.68 in
(1005 mb)
Calm - 10SM
17:53
Clear
43°F / 6°C 39°F / 4°C 87% 29.68 in
(1005 mb)
Calm - 10SM
16:53
Partly Cloudy
46°F / 8°C 41°F / 5°C 82% 29.65 in
(1004 mb)
Calm - 10SM
15:53
Partly Cloudy
48°F / 9°C 43°F / 6°C 82% 29.65 in
(1004 mb)
NNW 10.4 mph
(NNW 17 kph)
- 10SM
14:53
Partly Cloudy
48°F / 9°C 43°F / 6°C 82% 29.65 in
(1004 mb)
NW 10.4 mph
(NW 17 kph)
- 10SM
13:53
Partly Cloudy
48°F / 9°C 43°F / 6°C 82% 29.68 in
(1005 mb)
NNW 5.8 mph
(NNW 9 kph)
- 10SM
12:53
Partly Cloudy
48°F / 9°C 43°F / 6°C 82% 29.68 in
(1005 mb)
NW 5.8 mph
(NW 9 kph)
- 10SM
11:53
Partly Cloudy
48°F / 9°C 43°F / 6°C 82% 29.68 in
(1005 mb)
NNW 11.5 mph
(NNW 19 kph)
- 10SM
10:53
Partly Cloudy
46°F / 8°C 41°F / 5°C 82% 29.68 in
(1005 mb)
NNW 8.1 mph
(NNW 13 kph)
- 10SM
09:53
Clear
45°F / 7°C 41°F / 5°C 87% 29.71 in
(1006 mb)
NNW 8.1 mph
(NNW 13 kph)
- 10SM
08:53
Partly Cloudy
43°F / 6°C 39°F / 4°C 87% 29.71 in
(1006 mb)
NNW 10.4 mph
(NNW 17 kph)
- 10SM
07:53
Partly Cloudy
39°F / 4°C 37°F / 3°C 93% 29.71 in
(1006 mb)
NE 3.5 mph
(NE 6 kph)
- 10SM
06:53
Partly Cloudy
39°F / 4°C 37°F / 3°C 93% 29.74 in
(1007 mb)
NNW 4.6 mph
(NNW 7 kph)
- 10SM
05:53
Clear
39°F / 4°C 37°F / 3°C 93% 29.74 in
(1007 mb)
N 4.6 mph
(N 7 kph)
- 10SM
04:53
Clear
37°F / 3°C 37°F / 3°C 100% 29.77 in
(1008 mb)
N 3.5 mph
(N 6 kph)
- 10SM
03:53
Clear
39°F / 4°C 37°F / 3°C 93% 29.77 in
(1008 mb)
NE 4.6 mph
(NE 7 kph)
- 10SM
02:53
Clear
41°F / 5°C 39°F / 4°C 93% 29.77 in
(1008 mb)
N 3.5 mph
(N 6 kph)
- 10SM
01:53
Clear
41°F / 5°C 37°F / 3°C 87% 29.77 in
(1008 mb)
ENE 5.8 mph
(ENE 9 kph)
- 10SM
00:53
Clear
41°F / 5°C 39°F / 4°C 93% 29.77 in
(1008 mb)
E 6.9 mph
(E 11 kph)
- 10SM
Time Weather Temperature Dewpoint Humidity Pressure Winds Precip Visibility


Weather for websites

WeatherForYou.com, LLC is not responsible for any damages or problems caused by this service. Current weather conditions are obtained from the closest station including government and personal stations which may have varying degrees of accuracy. Weather forecasts are derived from the NOAA NDFD. Like all things, this site belongs to Jesus Christ... He just trusts me to maintain it. If you have any questions or comments email webmaster@weatherforyou.com

Copyright © 2014, WeatherForYou.com LLC. All rights reserved.